Temp
79 81 80 81 80 80 80 80 80 80 79 79 80 79 79 79 79 79 79 79 80 80 81 81 81 81 81 81 81 80 80 80 81 82 81 81 81 81 80 81 81 80 80
79 81 80 80 80 80 80 80 80 79 79 79 79 79 79 79 79 79 79 79 80 80 81 81 81 81 81 81 81 80 80 80 80 81 82 82 81 81 81 82 82 80 79
79 80 81 80 80 80 80 80 79 79 79 79 79 79 79 79 79 79 79 79 80 81 81 81 81 81 81 81 80 80 80 80 80 80 81 75 77 81 81 82 81 80 79
80 79 80 80 80 80 80 79 79 79 79 79 79 79 79 79 79 79 79 79 80 81 81 81 81 81 81 80 80 80 80 80 80 80 75 76 79 82 81 81 81 80 80
79 80 79 80 80 80 80 79 79 79 79 79 79 79 79 79 78 78 79 79 80 81 81 81 81 80 80 80 80 79 79 79 80 80 71 70 72 81 81 80 80 80 80
80 82 80 80 80 80 80 80 79 79 79 79 79 79 79 79 78 78 78 79 80 81 81 81 80 80 80 79 79 79 79 79 80 71 71 73 74 79 82 80 81 80 80
80 82 80 80 80 80 80 80 79 79 79 79 79 79 79 78 78 78 78 79 79 80 80 80 80 79 79 79 79 79 78 79 75 70 71 72 73 77 80 81 80 80 79
82 79 79 81 80 80 80 79 79 79 78 78 78 79 79 78 78 78 78 79 79 79 80 80 80 79 78 78 78 78 78 79 78 72 72 71 75 78 80 80 80 80 80
82 78 78 78 79 80 79 79 79 78 78 78 78 78 78 78 78 78 78 78 78 78 78 79 79 79 78 78 77 77 78 79 73 71 74 73 77 80 81 80 80 80 79
77 79 75 75 77 76 76 79 79 78 78 78 77 77 77 78 78 78 77 77 78 78 78 78 78 78 78 77 77 77 77 78 73 70 72 73 77 80 80 80 80 79 79
80 75 75 76 75 75 76 78 78 79 79 78 78 78 76 74 75 76 77 77 78 78 78 78 77 77 77 77 77 77 78 74 70 72 73 75 77 79 81 80 80 79 78
76 77 73 74 75 75 80 75 75 76 75 74 74 73 73 73 72 77 77 77 78 78 78 78 77 77 77 74 74 77 75 73 71 73 75 77 78 80 81 80 80 79 78
72 73 73 71 71 73 74 72 73 73 73 72 72 73 72 75 73 74 75 76 76 77 76 77 76 76 75 74 73 72 73 72 73 74 77 78 78 80 81 80 79 79 78
70 70 71 71 70 69 70 72 73 71 72 71 71 72 72 72 71 71 74 75 75 75 75 74 73 74 73 73 73 73 74 75 75 75 75 78 78 80 81 81 80 78 77
69 71 71 72 70 68 68 67 68 69 71 72 71 72 73 73 72 72 73 75 75 73 73 72 73 72 72 73 74 74 75 76 76 77 76 78 78 79 80 81 80 79 78
68 68 69 69 68 68 69 69 70 67 68 68 72 72 75 76 72 70 74 74 72 71 71 72 71 70 71 72 73 76 75 77 77 76 76 75 77 77 79 80 79 79 78
67 68 68 69 68 66 66 67 69 71 72 70 68 69 73 74 72 71 73 74 75 72 70 69 70 71 70 70 69 72 73 74 74 76 76 74 73 76 77 78 78 79 78
67 67 67 71 66 65 64 66 67 69 70 72 73 70 69 72 75 75 75 75 77 72 73 70 70 68 67 66 68 68 68 70 72 72 73 72 72 75 75 77 79 78 78
66 66 66 66 65 64 64 64 64 66 67 70 71 72 72 71 75 74 73 77 75 72 70 70 72 67 66 68 68 69 69 68 69 73 70 70 70 71 74 75 77 78 79
66 65 64 64 63 63 62 63 64 65 68 71 72 70 72 71 73 72 73 74 71 70 69 67 67 66 67 67 69 69 67 67 67 67 68 71 70 69 70 72 72 74 78
65 64 64 62 61 61 61 63 64 63 66 68 70 71 71 70 70 73 73 72 69 66 65 65 64 65 66 65 63 63 63 65 65 65 65 66 67 68 68 70 71 72 73
64 63 62 61 61 62 59 59 59 61 63 65 68 69 69 66 65 68 70 66 67 62 62 62 62 62 64 64 62 58 56 60 61 63 63 65 66 67 68 70 69 70 71
62 62 62 60 60 60 59 60 60 60 62 63 64 66 66 66 65 62 63 63 64 63 63 62 62 64 61 65 63 59 54 53 55 59 62 62 62 63 65 66 68 68 69
61 61 60 60 59 61 59 57 56 55 55 57 61 63 65 65 63 63 62 62 61 61 62 62 64 63 62 59 60 61 60 59 55 56 57 60 61 62 62 62 64 66 67
61 61 61 59 58 57 57 56 55 54 55 58 62 61 62 64 63 63 61 60 60 59 60 60 60 59 59 60 58 59 58 58 58 55 56 54 58 60 58 56 57 59 60
58 58 57 56 56 57 56 56 55 54 54 55 57 58 60 62 62 63 63 61 60 60 59 60 60 60 60 61 61 59 59 60 60 59 57 57 57 57 55 54 55 57 59
MSLP
1009.92 1010.02 1010.45 1010.69 1010.53 1010.56 1010.58 1010.72 1010.58 1010.87 1010.94 1010.88 1011.04 1011.21 1011.45 1011.60 1011.56 1011.44 1011.42 1011.39 1011.42 1011.68 1011.87 1011.97 1012.01 1012.23 1012.20 1012.16 1012.27 1012.38 1012.48 1012.62 1012.71 1012.74 1012.82 1012.94 1012.96 1013.01 1013.04 1012.80 1012.82 1013.04 1013.20
1009.07 1009.72 1010.10 1010.53 1010.58 1010.76 1010.59 1010.81 1010.77 1010.92 1011.20 1010.88 1010.88 1011.23 1011.55 1011.82 1012.01 1011.96 1011.90 1011.70 1011.59 1011.71 1011.87 1012.02 1012.21 1012.50 1012.48 1012.39 1012.37 1012.40 1012.54 1012.67 1012.76 1012.81 1012.80 1012.92 1013.00 1012.96 1012.86 1012.65 1012.84 1012.99 1013.12
1010.09 1009.88 1010.26 1010.39 1010.54 1010.76 1010.71 1010.84 1010.78 1010.87 1010.99 1011.22 1011.11 1011.11 1011.44 1011.63 1011.91 1011.96 1012.00 1012.14 1012.12 1012.02 1011.99 1011.99 1012.10 1012.42 1012.52 1012.56 1012.54 1012.50 1012.53 1012.65 1012.79 1012.82 1012.79 1012.97 1013.09 1013.01 1012.88 1012.73 1012.79 1013.02 1013.03
1010.03 1009.99 1009.91 1010.04 1010.30 1010.28 1010.40 1010.71 1010.81 1010.99 1011.23 1011.32 1011.46 1011.52 1011.44 1011.84 1012.01 1012.08 1012.09 1012.20 1012.21 1012.23 1012.25 1012.15 1012.11 1012.40 1012.45 1012.46 1012.44 1012.44 1012.41 1012.42 1012.53 1012.56 1012.65 1012.75 1012.85 1012.74 1012.76 1012.72 1012.74 1012.84 1013.01
1011.20 1010.08 1010.28 1010.12 1009.97 1010.09 1010.19 1010.43 1010.54 1010.74 1011.14 1011.34 1011.28 1011.39 1011.37 1011.58 1011.82 1011.83 1011.96 1012.20 1012.34 1012.31 1012.32 1012.29 1012.30 1012.44 1012.44 1012.47 1012.46 1012.44 1012.40 1012.33 1012.30 1012.37 1012.53 1012.59 1012.71 1012.59 1012.54 1012.57 1012.60 1012.63 1012.77
1010.61 1010.38 1010.13 1010.10 1010.35 1009.97 1009.85 1010.03 1010.30 1010.59 1011.02 1011.31 1011.31 1011.37 1011.50 1011.40 1011.63 1011.68 1011.74 1011.91 1012.10 1012.08 1012.01 1012.10 1012.21 1012.41 1012.44 1012.42 1012.39 1012.42 1012.46 1012.43 1012.41 1012.44 1012.40 1012.53 1012.40 1012.19 1012.14 1012.13 1012.17 1012.24 1012.39
1009.34 1009.79 1010.78 1009.98 1009.73 1009.85 1009.98 1009.98 1010.37 1010.38 1010.66 1010.85 1011.05 1011.37 1011.61 1011.51 1011.69 1011.77 1011.56 1011.65 1011.85 1011.95 1012.01 1011.98 1012.02 1012.19 1012.40 1012.45 1012.39 1012.34 1012.36 1012.27 1012.24 1012.35 1012.25 1012.20 1012.19 1011.92 1011.68 1011.78 1011.87 1011.94 1012.07
1008.61 1009.63 1010.83 1010.53 1010.29 1010.90 1011.00 1010.55 1010.37 1010.46 1010.32 1010.49 1010.75 1010.66 1010.92 1011.41 1011.29 1011.64 1011.84 1011.68 1011.59 1011.62 1011.74 1011.86 1011.83 1011.95 1012.24 1012.29 1012.30 1012.31 1012.25 1012.22 1012.10 1012.06 1011.97 1011.84 1011.83 1011.71 1011.58 1011.62 1011.61 1011.58 1011.73
1009.53 1010.18 1010.41 1011.26 1011.46 1011.48 1011.38 1010.87 1010.51 1010.26 1010.43 1010.73 1011.09 1011.03 1011.06 1011.22 1011.08 1011.18 1011.40 1011.54 1011.69 1011.75 1011.65 1011.49 1011.52 1011.53 1011.66 1011.85 1011.97 1012.12 1012.10 1011.92 1011.92 1011.93 1011.82 1011.54 1011.39 1011.28 1011.05 1011.12 1011.29 1011.36 1011.42
1010.84 1011.34 1011.58 1011.98 1012.08 1011.95 1011.92 1011.42 1011.11 1010.57 1010.41 1010.71 1010.91 1010.98 1010.86 1010.79 1010.82 1010.93 1011.24 1011.17 1011.22 1011.23 1011.33 1011.34 1011.21 1011.27 1011.38 1011.47 1011.53 1011.53 1011.70 1011.63 1011.57 1011.49 1011.46 1011.29 1011.17 1011.05 1010.86 1010.78 1010.96 1011.03 1011.06
1011.70 1012.21 1012.33 1012.40 1012.24 1012.29 1011.95 1011.40 1011.23 1010.96 1010.95 1010.98 1010.76 1010.85 1010.90 1011.06 1010.72 1010.79 1010.85 1010.77 1010.83 1010.81 1010.88 1010.92 1010.86 1010.85 1011.03 1011.09 1011.15 1011.11 1011.23 1011.18 1011.12 1011.05 1010.95 1010.73 1010.68 1010.69 1010.50 1010.41 1010.57 1010.75 1010.61
1012.87 1012.86 1012.92 1012.77 1012.62 1012.27 1011.67 1011.54 1011.25 1010.98 1011.16 1011.39 1011.46 1011.55 1011.26 1010.99 1010.72 1010.47 1010.45 1010.47 1010.40 1010.29 1010.35 1010.44 1010.40 1010.47 1010.66 1010.77 1010.95 1010.91 1010.86 1010.67 1010.72 1010.54 1010.37 1010.19 1010.13 1010.08 1009.98 1010.02 1010.06 1010.16 1010.14
1013.80 1013.76 1013.63 1013.51 1013.00 1012.50 1012.17 1011.88 1011.54 1011.11 1011.23 1011.38 1011.38 1011.21 1010.94 1010.68 1010.36 1010.20 1010.05 1009.95 1010.02 1009.77 1009.79 1010.01 1010.30 1010.37 1010.31 1010.43 1010.51 1010.69 1010.56 1010.51 1010.34 1010.02 1009.71 1009.40 1009.49 1009.51 1009.60 1009.59 1009.60 1009.81 1009.83
1013.82 1013.81 1013.78 1013.62 1013.46 1013.03 1012.68 1012.27 1011.94 1011.49 1011.31 1011.04 1010.90 1010.67 1010.52 1010.41 1009.99 1009.79 1009.84 1009.62 1009.53 1009.33 1009.46 1009.61 1009.66 1009.89 1009.93 1010.01 1010.05 1010.01 1010.04 1009.90 1009.75 1009.57 1009.20 1008.88 1008.80 1008.78 1008.69 1008.80 1009.24 1009.29 1009.49
1012.84 1012.96 1012.86 1013.05 1013.24 1013.11 1013.13 1012.88 1012.49 1012.33 1011.89 1011.16 1010.68 1010.31 1010.08 1010.02 1009.59 1009.26 1009.29 1009.31 1008.92 1008.81 1008.95 1009.29 1009.39 1009.61 1009.74 1009.57 1009.51 1009.49 1009.45 1009.27 1009.14 1009.15 1009.00 1008.49 1008.13 1007.97 1007.92 1008.09 1008.40 1008.76 1008.95
1012.48 1012.92 1012.98 1012.82 1012.61 1012.48 1012.41 1012.32 1012.41 1012.23 1011.81 1011.36 1010.72 1010.23 1009.79 1009.39 1009.23 1009.12 1008.98 1008.77 1008.60 1008.27 1008.26 1008.59 1008.80 1009.00 1009.01 1009.03 1009.18 1009.14 1008.97 1008.88 1008.71 1008.56 1008.56 1008.21 1007.87 1007.54 1007.28 1007.44 1007.68 1008.07 1008.41
1012.68 1012.74 1012.81 1013.09 1013.10 1012.64 1012.39 1012.34 1012.21 1011.78 1011.44 1011.28 1010.81 1010.08 1009.50 1008.96 1008.71 1008.67 1008.46 1008.20 1007.99 1007.68 1007.97 1008.34 1008.28 1008.64 1008.77 1008.91 1009.11 1008.93 1008.76 1008.59 1008.51 1008.25 1008.11 1007.96 1007.72 1007.49 1007.21 1006.77 1006.78 1007.21 1007.50
1012.60 1012.88 1013.06 1013.57 1013.75 1013.67 1013.41 1012.99 1012.38 1011.75 1011.31 1010.65 1010.06 1009.65 1009.21 1008.81 1008.25 1008.03 1007.81 1007.59 1007.21 1007.37 1007.65 1007.94 1007.96 1008.25 1008.63 1008.99 1008.84 1008.63 1008.63 1008.49 1008.20 1007.98 1007.56 1007.43 1007.44 1007.26 1007.13 1007.04 1006.88 1006.67 1006.86
1012.49 1012.86 1013.53 1013.94 1014.04 1013.87 1013.64 1013.08 1012.59 1012.14 1011.70 1010.96 1010.14 1009.38 1008.74 1008.47 1007.75 1007.42 1007.11 1006.65 1006.57 1006.74 1007.01 1007.24 1007.42 1008.05 1008.50 1008.41 1008.38 1008.19 1007.97 1007.99 1007.75 1007.57 1007.42 1007.21 1007.02 1006.91 1006.64 1006.33 1006.20 1006.17 1006.17
1012.69 1013.29 1013.70 1014.07 1014.33 1014.08 1013.85 1013.30 1012.66 1012.21 1011.63 1010.85 1010.28 1009.59 1008.63 1007.89 1007.14 1006.60 1006.35 1006.09 1006.15 1006.48 1006.65 1006.93 1007.66 1008.19 1008.01 1008.13 1008.10 1007.98 1007.80 1007.67 1007.52 1007.32 1007.13 1006.81 1006.59 1006.37 1006.27 1006.04 1005.76 1005.39 1005.39
1013.57 1014.10 1014.42 1014.64 1014.57 1014.14 1013.94 1013.71 1013.12 1012.63 1011.60 1011.10 1010.45 1009.70 1008.90 1008.03 1007.01 1006.29 1005.81 1005.78 1006.04 1006.82 1007.22 1007.76 1008.37 1008.69 1008.15 1007.76 1008.06 1008.05 1007.96 1007.46 1007.19 1006.99 1006.76 1006.62 1006.30 1005.96 1005.73 1005.55 1005.23 1004.86 1004.64
1014.68 1014.86 1014.98 1015.16 1014.90 1014.34 1013.98 1013.70 1013.43 1013.00 1012.02 1011.13 1010.57 1009.84 1009.12 1008.45 1007.54 1006.39 1005.71 1005.84 1005.87 1006.76 1007.09 1007.39 1007.98 1008.31 1008.69 1007.96 1008.08 1008.37 1008.51 1008.09 1007.36 1006.94 1006.53 1006.34 1006.06 1005.66 1005.38 1005.18 1004.79 1004.52 1004.10
1014.94 1014.79 1014.62 1014.51 1014.21 1014.17 1013.89 1013.55 1013.29 1012.92 1011.92 1011.04 1010.53 1010.05 1009.36 1008.59 1008.04 1007.44 1006.68 1006.19 1006.30 1006.38 1007.09 1007.27 1007.77 1009.06 1009.32 1008.04 1007.54 1008.10 1008.74 1008.69 1008.04 1006.83 1006.46 1005.99 1005.70 1005.54 1005.36 1005.12 1004.80 1004.30 1003.73
1015.36 1015.34 1014.96 1014.79 1015.05 1014.57 1014.23 1014.28 1013.89 1013.83 1012.99 1012.05 1011.49 1010.64 1009.71 1009.19 1008.47 1008.00 1007.36 1006.80 1006.70 1006.90 1007.17 1007.54 1008.16 1008.65 1008.76 1009.09 1007.89 1007.52 1007.81 1008.03 1008.21 1007.24 1006.35 1005.92 1005.67 1005.62 1005.66 1005.48 1005.17 1004.70 1003.83
1016.19 1015.98 1015.53 1015.29 1015.00 1014.53 1014.24 1014.57 1014.88 1013.85 1013.34 1012.15 1011.48 1011.04 1010.22 1009.44 1009.15 1008.54 1008.11 1008.02 1007.56 1007.35 1007.43 1007.49 1007.59 1007.15 1007.48 1008.72 1008.76 1007.52 1007.42 1007.51 1007.41 1007.59 1006.93 1006.55 1006.24 1006.16 1006.43 1006.35 1006.08 1005.42 1004.63
1016.26 1015.99 1015.62 1015.54 1015.27 1014.73 1014.33 1014.20 1014.43 1014.30 1013.10 1012.68 1011.69 1011.29 1010.86 1009.95 1009.39 1008.89 1008.28 1008.41 1008.41 1008.37 1007.92 1007.92 1007.41 1007.40 1007.13 1008.40 1008.29 1007.46 1007.59 1007.52 1007.12 1007.11 1007.10 1006.80 1006.43 1006.34 1006.57 1006.81 1006.37 1005.94 1005.26
Wind_Speed
7 6 4 3 6 9 10 10 12 11 10 10 11 11 11 10 11 12 14 13 12 11 11 10 9 8 7 7 7 7 6 6 6 8 9 9 10 9 10 12 13 9 10
8 5 8 6 7 8 11 10 10 9 8 11 12 11 10 10 10 9 8 9 10 11 10 9 7 5 6 5 5 5 5 5 4 4 6 8 8 9 7 9 9 9 11
2 6 8 9 8 8 9 8 9 9 10 8 10 11 10 10 9 9 8 6 6 8 9 9 8 7 6 5 4 3 2 1 1 2 4 3 5 8 7 9 10 10 11
4 7 8 12 11 11 10 9 8 8 8 9 8 9 9 8 8 8 7 7 8 8 7 7 7 7 7 6 5 4 3 2 4 4 2 3 6 11 10 10 10 11 10
10 5 4 11 15 13 12 11 11 10 9 9 10 9 10 9 8 8 8 6 6 9 9 7 6 5 5 5 4 4 4 5 6 6 3 4 4 7 14 13 12 12 12
16 7 8 14 11 13 15 13 12 11 10 9 9 9 9 11 10 9 9 8 9 7 5 9 8 6 5 5 5 5 6 6 7 5 5 4 6 11 16 18 16 15 13
20 6 6 12 15 15 14 14 12 12 12 12 11 10 9 9 8 9 11 11 10 10 9 8 8 8 7 7 7 7 8 9 5 6 6 5 6 11 11 17 16 15 14
12 8 4 8 9 6 6 9 10 9 11 12 13 14 13 11 10 10 9 10 11 11 9 9 9 9 8 8 9 9 9 11 8 6 6 5 8 11 15 16 16 15 15
7 7 4 2 4 2 2 6 7 8 8 8 8 9 10 10 11 11 11 11 10 10 10 10 10 11 11 11 10 11 11 13 7 5 8 5 9 12 15 19 17 15 15
6 7 7 7 6 4 4 3 3 7 9 9 8 9 10 12 12 12 12 12 13 13 13 13 12 11 11 12 12 13 13 15 8 6 6 7 12 13 15 18 17 17 17
11 7 5 2 2 4 4 3 5 9 8 8 10 12 7 4 6 9 11 14 15 15 15 16 15 14 14 14 14 15 15 6 6 6 5 12 15 16 17 19 18 18 20
9 11 8 9 8 7 4 1 5 5 3 4 4 5 4 5 6 9 12 15 17 18 18 17 17 16 13 6 5 14 6 8 5 7 6 15 17 18 17 20 20 21 22
7 6 6 6 7 8 7 3 2 2 2 3 5 5 5 7 6 5 5 6 8 15 8 11 9 8 8 5 6 6 7 7 6 6 10 17 18 18 19 21 21 22 22
8 6 5 4 6 6 4 5 6 5 5 4 5 7 6 6 7 6 5 7 7 5 9 7 5 7 7 7 8 8 9 8 6 6 8 17 18 20 21 24 21 23 22
12 9 9 8 6 4 2 2 4 4 5 8 6 7 7 7 6 5 7 6 7 6 7 6 7 6 6 8 8 9 10 9 8 6 6 16 16 20 20 22 24 23 24
8 8 7 8 9 7 8 9 6 4 5 5 7 6 9 8 7 5 7 8 6 7 6 6 6 6 7 5 7 8 9 7 7 6 5 8 16 17 20 23 23 25 25
6 7 8 7 7 7 7 6 6 8 8 5 5 8 8 8 8 10 9 8 8 5 6 5 5 5 4 3 6 4 4 6 5 5 3 4 5 13 20 24 28 26 26
8 8 8 6 7 7 6 5 5 6 8 9 9 6 7 8 12 12 11 10 9 5 5 5 4 4 3 3 3 4 4 4 5 5 4 2 3 4 10 21 23 25 27
8 8 9 7 6 6 5 4 4 6 5 7 9 10 12 8 12 11 11 11 10 7 5 4 4 2 2 3 4 4 5 4 5 4 6 6 5 6 6 12 23 26 28
8 9 8 6 7 6 4 5 4 4 6 7 8 9 15 12 12 8 9 10 6 4 4 1 2 3 3 4 4 5 4 5 4 5 5 6 6 6 6 8 9 13 28
9 9 9 8 7 5 4 7 6 8 7 8 9 14 14 15 13 12 8 8 3 3 7 6 3 5 3 1 2 3 4 6 6 5 5 5 6 7 6 8 7 8 10
10 8 9 8 7 7 3 3 2 4 4 5 8 11 11 10 12 8 5 2 4 4 4 4 5 1 4 3 3 2 3 5 4 5 4 4 7 5 6 8 10 11 10
9 7 6 3 4 3 5 3 3 4 4 6 10 10 11 12 10 8 5 3 5 4 4 3 4 5 4 4 5 4 1 5 3 3 5 5 6 4 4 6 8 10 7
7 6 6 6 6 5 7 6 5 3 4 4 7 8 9 10 9 8 6 4 5 4 5 3 4 5 3 7 4 3 3 4 4 6 2 4 4 4 6 7 7 7 8
7 5 5 5 5 6 6 5 5 3 3 3 7 11 10 8 8 6 7 9 5 1 3 4 4 3 2 5 5 3 1 3 4 4 7 4 3 3 4 5 7 5 8
6 6 6 7 6 7 5 3 2 5 5 6 8 8 8 7 6 12 7 4 4 4 6 5 3 4 2 7 4 2 2 3 3 2 4 6 4 0 3 3 4 4 6
Wind_Direction
206 166 192 190 125 125 125 127 125 123 117 108 101 101 100 99 104 114 120 119 122 125 128 132 140 146 140 127 118 113 112 115 126 139 146 151 160 175 171 134 133 130 133
119 151 161 164 124 125 124 126 121 119 120 124 119 112 105 101 102 102 105 119 125 131 133 134 136 141 145 135 126 119 122 128 138 156 166 174 182 185 165 133 140 148 147
308 149 163 149 122 123 124 130 131 133 133 127 125 125 125 126 125 124 120 116 128 142 148 149 152 156 158 149 139 135 135 151 185 200 214 200 219 205 174 160 158 165 161
180 169 166 151 138 142 139 142 138 135 136 135 134 132 131 132 136 142 142 146 155 156 162 164 165 171 172 171 176 185 200 242 265 261 258 247 240 207 200 190 186 178 177
323 196 180 156 154 149 149 154 150 148 147 148 148 151 151 154 160 160 164 171 186 180 171 181 184 185 182 193 210 221 235 244 259 273 262 259 262 266 206 201 200 190 187
279 230 200 168 167 162 162 160 158 151 151 156 162 168 172 169 173 172 178 186 199 205 196 185 185 201 205 209 229 245 254 263 274 283 278 261 263 265 226 197 200 197 197
247 195 216 176 177 182 168 158 158 155 159 165 170 177 183 179 189 193 186 191 205 211 206 216 201 198 223 229 235 243 251 258 262 268 273 247 253 269 216 202 200 198 192
199 120 220 218 191 169 171 155 155 161 168 179 183 179 180 191 189 198 207 206 207 214 222 222 224 215 220 240 249 253 257 266 273 270 266 267 242 249 223 213 205 196 192
82 113 167 341 10 22 196 175 162 175 190 194 201 193 193 197 194 196 204 211 222 229 230 226 230 225 215 222 241 255 260 264 265 261 275 272 267 270 235 211 207 196 194
80 59 44 24 11 351 301 316 231 212 205 203 208 212 202 197 201 207 214 212 218 221 224 227 227 231 229 226 231 239 250 261 259 254 260 263 261 266 238 213 207 200 191
75 69 70 88 8 304 287 270 262 258 252 224 219 225 208 232 217 217 219 218 220 222 224 226 226 227 231 234 233 236 247 247 238 252 253 258 264 261 244 217 209 208 192
77 58 40 24 14 350 288 273 238 272 292 282 311 298 257 230 228 219 225 227 225 222 225 229 227 227 229 226 240 251 245 246 238 251 250 250 252 253 242 219 211 206 192
91 61 28 25 3 8 354 345 282 271 258 264 271 262 236 239 235 227 232 232 225 228 221 224 234 232 227 222 230 240 243 245 244 247 252 247 245 249 241 224 213 204 196
96 97 119 93 41 9 347 349 336 336 307 282 242 237 219 237 230 227 233 235 228 211 219 214 205 220 218 223 229 235 238 243 242 247 253 252 244 244 235 226 216 202 199
71 58 50 70 75 77 76 286 298 295 299 300 291 257 228 240 243 230 236 238 229 209 201 200 213 210 221 225 236 235 245 245 248 250 262 262 244 248 238 215 212 205 203
84 80 74 39 10 13 12 358 349 304 287 282 291 280 253 242 239 232 240 237 227 203 204 202 201 211 214 207 229 233 242 251 254 251 250 264 271 241 221 214 205 207 207
104 97 77 65 22 13 350 347 344 333 328 303 267 278 272 254 245 242 237 241 233 207 210 225 210 195 209 196 241 250 262 260 268 263 258 234 275 251 233 216 206 207 206
124 103 81 54 25 2 349 335 325 324 327 323 317 304 271 264 257 250 240 237 234 196 208 193 199 213 236 237 267 279 257 239 243 239 262 254 263 246 255 248 231 210 210
118 108 81 55 17 347 329 328 325 318 316 314 314 315 308 265 273 243 237 232 219 208 199 198 224 117 239 260 253 262 269 286 288 293 269 263 250 241 250 249 241 231 222
107 84 83 53 17 353 331 327 333 341 337 332 334 314 313 310 291 252 237 227 224 211 218 56 126 217 198 224 253 276 285 275 273 271 281 284 273 257 252 251 255 251 235
65 65 49 38 2 13 6 3 357 349 346 346 347 337 335 332 310 273 240 243 244 76 98 79 35 315 283 331 33 329 301 276 272 268 270 275 276 274 250 254 255 259 252
55 53 42 24 7 14 358 326 352 307 315 346 347 347 337 347 359 345 282 153 125 114 114 117 137 13 290 208 172 139 303 323 292 272 273 263 266 269 271 265 269 267 262
77 93 108 90 51 10 349 340 337 320 304 360 357 343 342 342 344 350 11 53 92 105 142 201 52 350 292 263 196 160 277 242 318 270 268 261 274 281 302 295 279 265 253
38 35 41 48 13 357 8 5 21 324 344 341 333 328 339 351 354 350 351 26 42 57 85 95 137 159 188 288 313 189 207 189 240 308 301 297 299 332 350 349 331 332 301
18 359 24 11 356 353 18 19 333 352 318 333 359 335 343 340 350 344 16 358 19 206 219 192 228 33 82 282 250 271 258 233 209 208 294 314 328 29 25 3 349 357 36
345 351 0 359 321 325 353 3 30 349 3 355 358 349 327 342 359 8 15 0 358 336 8 335 21 9 319 255 271 295 243 263 274 235 273 292 256 118 51 16 14 5 65